Sitka, AK

8:32 PM AKDT on March 22, 2017 (GMT -0800)
Sitka Rocky Gutierrez

Weather History for PASI - November, 2013

Change the Weather History Date:

Wednesday, November 27, 2013

  Actual Average Record
Temperature  
Mean Temperature 49 °F -  
Max Temperature 53 °F 42 °F 55 °F (2002)
Min Temperature 45 °F 34 °F 10 °F (1985)
Degree Days  
Heating Degree Days 16    
Moisture  
Dew Point 40 °F    
Average Humidity 77    
Maximum Humidity 90    
Minimum Humidity 57    
Precipitation  
Precipitation 0.84 in - - ()
Sea Level Pressure  
Sea Level Pressure 29.58 in    
Wind  
Wind Speed 12 mph (South)    
Max Wind Speed 22 mph    
Max Gust Speed 30 mph    
Visibility 8 miles    
Events Rain    
Averages and records for this station are not official NWS values.
T = Trace of Precipitation, MM = Missing Value Source: NWS Daily Summary

Daily Weather History Graph

Daily Weather History Graph

Search for Another Location

Airport or City:

Trip Planner

Search our weather history database for the weather conditions in past years. The results will help you decide how hot, cold, wet, or windy it might be!

Date:

Astronomy

Nov. 27, 2013 Rise Set
Actual Time 8:08 AM AKST 3:29 PM AKST
Civil Twilight 7:21 AM AKST 4:16 PM AKST
Nautical Twilight 6:32 AM AKST 5:05 PM AKST
Astronomical Twilight 5:46 AM AKST 5:51 PM AKST
Moon 1:12 AM AKST (11/27) 1:10 PM AKST (11/27)
Length of Visible Light 8h 54m
Length of Day
7h 21m
Waning Crescent, 30% of the Moon is Illuminated
Nov 27
Waning Crescent
Dec 2
New
Dec 9
First Quarter
Dec 17
Full
Dec 25
Last Quarter

Hourly Weather History & Observations

Time (AKST) Temp. Windchill Dew Point Humidity Pressure Visibility Wind Dir Wind Speed Gust Speed Precip Events Conditions
12:53 AM 46.0 °F 43.9 °F 41.0 °F 83% 29.85 in 10.0 mi ENE 4.6 mph - N/A   Overcast
1:53 AM 48.9 °F - 39.0 °F 69% 29.83 in 10.0 mi SE 10.4 mph - 0.00 in Rain Light Rain
3:53 AM 46.9 °F - 39.0 °F 74% 29.78 in 10.0 mi East 3.5 mph - 0.03 in Rain Light Rain
4:53 AM 46.9 °F - 39.0 °F 74% 29.75 in 7.0 mi East 4.6 mph - 0.06 in Rain Rain
5:53 AM 46.9 °F - 39.0 °F 74% 29.72 in 10.0 mi East 4.6 mph - 0.05 in   Overcast
6:53 AM 48.9 °F - 39.0 °F 69% 29.69 in 10.0 mi East 11.5 mph 19.6 mph 0.01 in   Overcast
7:53 AM 50.0 °F - 37.9 °F 63% 29.67 in 10.0 mi East 13.8 mph - 0.00 in Rain Light Rain
8:53 AM 50.0 °F - 37.9 °F 63% 29.65 in 10.0 mi ESE 17.3 mph 25.3 mph 0.00 in Rain Light Rain
9:53 AM 48.9 °F - 39.0 °F 69% 29.63 in 9.0 mi ESE 19.6 mph 26.5 mph 0.03 in Rain Light Rain
10:53 AM 50.0 °F - 37.9 °F 63% 29.60 in 10.0 mi ESE 15.0 mph - 0.01 in Rain Light Rain
11:53 AM 51.1 °F - 37.9 °F 61% 29.56 in 10.0 mi East 19.6 mph 29.9 mph 0.00 in   Overcast
12:53 PM 52.0 °F - 37.9 °F 59% 29.53 in 10.0 mi ESE 20.7 mph - N/A   Overcast
1:53 PM 53.1 °F - 37.9 °F 57% 29.49 in 10.0 mi East 16.1 mph 29.9 mph N/A   Overcast
2:53 PM 51.1 °F - 39.0 °F 63% 29.46 in 10.0 mi East 16.1 mph 29.9 mph 0.00 in Rain Light Rain
3:53 PM 50.0 °F - 39.9 °F 68% 29.45 in 10.0 mi ESE 9.2 mph 20.7 mph 0.02 in Rain Light Rain
4:41 PM 48.9 °F - 43.0 °F 80% 29.46 in 8.0 mi South 12.7 mph 20.7 mph 0.04 in Rain Light Rain
4:53 PM 48.0 °F - 44.1 °F 86% 29.47 in 5.0 mi South 18.4 mph 28.8 mph 0.07 in Rain Rain
5:53 PM 46.9 °F - 44.1 °F 90% 29.49 in 5.0 mi SSE 12.7 mph - 0.20 in Rain Rain
6:00 PM 46.9 °F - 44.1 °F 90% 29.49 in 5.0 mi SSE 11.5 mph - 0.03 in Rain Heavy Rain
6:02 PM 46.9 °F - 44.1 °F 90% 29.49 in 4.0 mi SSE 13.8 mph - 0.04 in Rain Rain
6:12 PM 46.9 °F - 44.1 °F 90% 29.49 in 4.0 mi South 10.4 mph - 0.08 in Rain Rain
6:38 PM 46.9 °F - 42.1 °F 83% 29.50 in 5.0 mi WSW 16.1 mph 23.0 mph 0.17 in Rain Rain
6:53 PM 46.0 °F 39.3 °F 42.1 °F 86% 29.51 in 7.0 mi WSW 16.1 mph - 0.20 in Rain Rain
7:00 PM 46.0 °F 39.6 °F 42.1 °F 86% 29.51 in 8.0 mi WSW 15.0 mph - 0.01 in Rain Rain
7:20 PM 46.0 °F 39.9 °F 42.1 °F 86% 29.52 in 6.0 mi WSW 13.8 mph - 0.03 in Rain Rain
7:53 PM 46.0 °F 39.9 °F 39.9 °F 79% 29.53 in 10.0 mi WSW 13.8 mph - 0.05 in Rain Light Rain
8:53 PM 45.0 °F 38.9 °F 41.0 °F 86% 29.55 in 4.0 mi West 12.7 mph - 0.01 in Rain Light Rain
9:16 PM 45.0 °F 38.2 °F 39.9 °F 82% 29.55 in 10.0 mi West 15.0 mph 23.0 mph 0.01 in Rain Light Rain
9:40 PM 45.0 °F 37.6 °F 39.9 °F 82% 29.56 in 10.0 mi West 17.3 mph - 0.02 in Rain Light Rain
9:53 PM 45.0 °F 37.6 °F 39.9 °F 82% 29.57 in 10.0 mi West 17.3 mph - 0.03 in Rain Light Rain
10:05 PM 45.0 °F 38.2 °F 39.9 °F 82% 29.57 in 10.0 mi West 15.0 mph - 0.00 in Rain Light Rain
10:31 PM 45.0 °F 37.6 °F 39.9 °F 82% 29.58 in 9.0 mi WSW 17.3 mph 23.0 mph 0.02 in Rain Light Rain
10:45 PM 45.0 °F 38.2 °F 39.0 °F 80% 29.59 in 10.0 mi West 15.0 mph - 0.02 in Rain Light Rain
10:53 PM 45.0 °F 39.7 °F 39.0 °F 80% 29.60 in 10.0 mi West 10.4 mph - 0.02 in Rain Light Rain
11:40 PM 45.0 °F 36.6 °F 39.0 °F 80% 29.63 in 8.0 mi West 21.9 mph - 0.04 in Rain Light Rain
11:53 PM 45.0 °F 36.9 °F 39.0 °F 80% 29.64 in 10.0 mi West 20.7 mph 27.6 mph 0.05 in Rain Light Rain